TimeCST,TemperatureF,Dew PointF,Humidity,Sea Level PressureIn,VisibilityMPH,Wind Direction,Wind SpeedMPH,Gust SpeedMPH,PrecipitationIn,Events,Conditions,WindDirDegrees,DateUTC
12:16 AM,-4.0,-7.6,85,29.72,10.0,Calm,Calm,-,N/A,,Clear,0,2012-12-11 06:16:00
12:36 AM,-4.0,-7.6,85,29.71,10.0,Calm,Calm,-,N/A,,Scattered Clouds,0,2012-12-11 06:36:00
12:57 AM,-4.0,-7.6,85,29.70,10.0,Calm,Calm,-,N/A,,Clear,0,2012-12-11 06:57:00
1:16 AM,-4.0,-7.6,85,29.70,10.0,Calm,Calm,-,N/A,,Mostly Cloudy,0,2012-12-11 07:16:00
1:36 AM,-2.2,-5.8,85,29.70,10.0,Calm,Calm,-,N/A,,Overcast,0,2012-12-11 07:36:00
1:57 AM,-2.2,-5.8,85,29.70,10.0,SSE,3.5,-,N/A,,Mostly Cloudy,160,2012-12-11 07:57:00
2:16 AM,1.4,-2.2,85,29.69,10.0,SSE,3.5,-,N/A,,Scattered Clouds,150,2012-12-11 08:16:00
2:36 AM,3.2,-0.4,85,29.69,10.0,SSE,3.5,-,N/A,,Overcast,150,2012-12-11 08:36:00
2:57 AM,5.0,1.4,85,29.69,10.0,SSE,3.5,-,N/A,,Overcast,160,2012-12-11 08:57:00
3:16 AM,6.8,1.4,79,29.68,10.0,SSE,3.5,-,N/A,,Overcast,160,2012-12-11 09:16:00
3:37 AM,6.8,1.4,79,29.68,10.0,South,3.5,-,N/A,,Overcast,180,2012-12-11 09:37:00
3:56 AM,6.8,1.4,79,29.68,10.0,South,3.5,-,N/A,,Overcast,180,2012-12-11 09:56:00
4:16 AM,6.8,1.4,79,29.67,10.0,South,5.8,-,N/A,,Overcast,170,2012-12-11 10:16:00
4:36 AM,6.8,1.4,79,29.66,10.0,South,6.9,-,N/A,,Overcast,170,2012-12-11 10:36:00
4:56 AM,6.8,1.4,79,29.67,10.0,SSW,4.6,-,N/A,Snow,Light Snow,210,2012-12-11 10:56:00
5:17 AM,5.0,1.4,85,29.67,5.0,South,4.6,-,N/A,Snow,Light Snow,190,2012-12-11 11:17:00
5:36 AM,5.0,1.4,85,29.67,4.0,South,3.5,-,N/A,Snow,Light Snow,190,2012-12-11 11:36:00
5:57 AM,5.0,1.4,85,29.67,2.5,SSW,3.5,-,N/A,Snow,Light Snow,200,2012-12-11 11:57:00
6:17 AM,3.2,1.4,92,29.67,1.8,SSW,4.6,-,N/A,Snow,Light Snow,210,2012-12-11 12:17:00
6:36 AM,3.2,-0.4,85,29.67,4.0,Calm,Calm,-,N/A,Snow,Light Snow,0,2012-12-11 12:36:00
6:57 AM,3.2,-0.4,85,29.67,7.0,SSW,3.5,-,N/A,Snow,Light Snow,200,2012-12-11 12:57:00
7:17 AM,3.2,-0.4,85,29.68,10.0,SSW,3.5,-,N/A,Snow,Light Snow,200,2012-12-11 13:17:00
7:36 AM,3.2,-0.4,85,29.68,10.0,Calm,Calm,-,N/A,Snow,Light Snow,0,2012-12-11 13:36:00
7:57 AM,3.2,-0.4,85,29.68,4.0,SSW,4.6,-,N/A,Snow,Light Snow,210,2012-12-11 13:57:00
8:17 AM,3.2,1.4,92,29.68,7.0,SW,3.5,-,N/A,Snow,Light Snow,220,2012-12-11 14:17:00
8:36 AM,5.0,1.4,85,29.69,7.0,SW,3.5,-,N/A,Snow,Light Snow,230,2012-12-11 14:36:00
8:57 AM,5.0,1.4,85,29.69,2.5,SW,3.5,-,N/A,Snow,Light Snow,220,2012-12-11 14:57:00
9:17 AM,6.8,3.2,85,29.69,1.8,SW,4.6,-,N/A,Snow,Light Snow,230,2012-12-11 15:17:00
9:36 AM,6.8,3.2,85,29.69,1.8,WSW,4.6,-,N/A,Snow,Light Snow,240,2012-12-11 15:36:00
9:57 AM,6.8,3.2,85,29.69,1.8,WSW,3.5,-,N/A,Snow,Light Snow,240,2012-12-11 15:57:00
10:16 AM,8.6,5.0,85,29.70,2.0,SW,4.6,-,N/A,Snow,Light Snow,230,2012-12-11 16:16:00
10:36 AM,8.6,5.0,85,29.70,2.0,SW,3.5,-,N/A,Snow,Light Snow,230,2012-12-11 16:36:00
10:57 AM,10.4,6.8,85,29.70,2.5,WSW,6.9,-,N/A,Snow,Light Snow,240,2012-12-11 16:57:00
11:16 AM,10.4,6.8,85,29.70,3.0,West,6.9,-,N/A,Snow,Light Snow,260,2012-12-11 17:16:00
11:36 AM,10.4,6.8,85,29.71,4.0,WSW,6.9,-,N/A,Snow,Light Snow,250,2012-12-11 17:36:00
11:57 AM,12.2,6.8,79,29.71,4.0,West,8.1,-,N/A,Snow,Light Snow,270,2012-12-11 17:57:00
12:16 PM,12.2,6.8,79,29.71,2.5,West,8.1,-,N/A,Snow,Light Snow,270,2012-12-11 18:16:00
12:36 PM,12.2,6.8,79,29.71,2.5,West,8.1,-,N/A,Snow,Light Snow,270,2012-12-11 18:36:00
12:57 PM,12.2,6.8,79,29.72,7.0,West,10.4,-,N/A,,Overcast,280,2012-12-11 18:57:00
1:16 PM,12.2,6.8,79,29.72,10.0,West,6.9,-,N/A,,Overcast,260,2012-12-11 19:16:00
1:36 PM,12.2,5.0,73,29.72,10.0,West,9.2,-,N/A,,Overcast,280,2012-12-11 19:36:00
1:57 PM,12.2,6.8,79,29.73,5.0,WSW,9.2,-,N/A,Snow,Light Snow,250,2012-12-11 19:57:00
2:16 PM,12.2,5.0,73,29.74,10.0,West,10.4,-,N/A,,Overcast,260,2012-12-11 20:16:00
2:36 PM,10.4,5.0,79,29.75,10.0,West,8.1,-,N/A,,Overcast,280,2012-12-11 20:36:00
2:57 PM,10.4,5.0,79,29.76,7.0,West,9.2,-,N/A,,Overcast,260,2012-12-11 20:57:00
3:16 PM,10.4,5.0,79,29.76,5.0,West,8.1,-,N/A,Snow,Light Snow,260,2012-12-11 21:16:00
3:36 PM,10.4,5.0,79,29.76,4.0,West,8.1,-,N/A,Snow,Light Snow,260,2012-12-11 21:36:00
3:57 PM,10.4,6.8,85,29.78,4.0,West,9.2,-,N/A,Snow,Light Snow,270,2012-12-11 21:57:00
4:16 PM,10.4,6.8,85,29.79,2.5,West,8.1,-,N/A,Snow,Light Snow,280,2012-12-11 22:16:00
4:36 PM,10.4,5.0,79,29.80,4.0,West,9.2,-,N/A,Snow,Light Snow,280,2012-12-11 22:36:00
4:56 PM,8.6,5.0,85,29.81,7.0,West,5.8,-,N/A,Snow,Light Snow,260,2012-12-11 22:56:00
5:16 PM,8.6,3.2,79,29.81,10.0,West,6.9,-,N/A,,Overcast,260,2012-12-11 23:16:00
5:36 PM,8.6,3.2,79,29.82,10.0,West,4.6,-,N/A,,Overcast,260,2012-12-11 23:36:00
5:57 PM,8.6,3.2,79,29.83,10.0,West,5.8,-,N/A,Snow,Light Snow,270,2012-12-11 23:57:00
6:16 PM,8.6,3.2,79,29.83,4.0,West,4.6,-,N/A,Snow,Light Snow,280,2012-12-12 00:16:00
6:36 PM,8.6,3.2,79,29.83,10.0,West,8.1,-,N/A,,Overcast,270,2012-12-12 00:36:00
6:57 PM,8.6,3.2,79,29.84,10.0,WNW,5.8,-,N/A,,Overcast,290,2012-12-12 00:57:00
7:16 PM,8.6,3.2,79,29.85,10.0,West,6.9,-,N/A,,Overcast,280,2012-12-12 01:16:00
7:37 PM,6.8,1.4,79,29.85,10.0,WNW,5.8,-,N/A,,Overcast,300,2012-12-12 01:37:00
7:57 PM,6.8,1.4,79,29.87,10.0,WNW,6.9,-,N/A,,Overcast,290,2012-12-12 01:57:00
8:16 PM,6.8,1.4,79,29.89,10.0,WNW,6.9,-,N/A,,Overcast,290,2012-12-12 02:16:00
8:37 PM,6.8,1.4,79,29.89,10.0,WNW,4.6,-,N/A,,Overcast,300,2012-12-12 02:37:00
8:56 PM,6.8,1.4,79,29.89,10.0,WNW,4.6,-,N/A,,Overcast,290,2012-12-12 02:56:00
9:16 PM,6.8,1.4,79,29.89,10.0,WNW,3.5,-,N/A,,Overcast,300,2012-12-12 03:16:00
9:37 PM,6.8,1.4,79,29.90,10.0,WNW,3.5,-,N/A,,Overcast,290,2012-12-12 03:37:00
9:56 PM,6.8,1.4,79,29.91,10.0,West,3.5,-,N/A,,Overcast,280,2012-12-12 03:56:00
10:17 PM,6.8,1.4,79,29.91,7.0,Calm,Calm,-,N/A,Snow,Light Snow,0,2012-12-12 04:17:00
10:37 PM,5.0,1.4,85,29.91,10.0,Calm,Calm,-,N/A,,Overcast,0,2012-12-12 04:37:00
10:56 PM,5.0,-0.4,78,29.91,10.0,Calm,Calm,-,N/A,,Overcast,0,2012-12-12 04:56:00
11:17 PM,5.0,-0.4,78,29.92,10.0,Calm,Calm,-,N/A,,Overcast,0,2012-12-12 05:17:00
11:37 PM,5.0,-0.4,78,29.93,10.0,Calm,Calm,-,N/A,,Overcast,0,2012-12-12 05:37:00
11:56 PM,5.0,-0.4,78,29.93,10.0,Calm,Calm,-,N/A,,Overcast,0,2012-12-12 05:56:00